Location: Glencliff
(36.1226°N, 86.7183°W)
Time: 01:28:42
(UTC+00:00)

Cosmos 1908 Rocket - Pass Details

Date: 25 August 2019
Orbit: 605 x 633 km, 82.5° (Epoch: 17 October)

Event Time Altitude Azimuth Distance (km) Brightness Sun altitude
Exits shadow 02:30:14 38° 207° (SSW) 963 4.4 -23.7°
Maximum altitude 02:31:50 68° 277° (W) 681 3.8 -23.9°
Drops below altitude 10° 02:36:17 10° 1° (N) 2,017 6.6 -24.7°
Sets 02:38:33 0° 4° (N) 2,926 7.5 -25.0°
